When you browse on this site, cookies collect data to enhance your experience and personalize the content and advertising you see.
Visit our Privacy Policy to learn more. By continuing to use the site, you agree to this use of cookies and data.
  • Em Portugal
  • Lista de países
  • Para 7 dias
  • Temperatura da água
  • Mapa do tempo
  • Widgets de tempo
  • user-avatar
    Iniciar Sessão

    Previsão horária em Nesebyr

    Hoje, 26 Maio, Terça-feira

    Tempo Temperatura Precipitação Vento Pressão Humidade
    00:00 +11°C° 0 mm 1 m/s 763 mmHg 87%
    01:00 +11°C° 0 mm 1 m/s 763 mmHg 88%
    02:00 +11°C° 0 mm 1 m/s 763 mmHg 88%
    03:00 +11°C° 0 mm 1 m/s 763 mmHg 88%
    04:00 +10°C° 0 mm 2 m/s 763 mmHg 88%
    05:00 +9°C° 0 mm 2 m/s 763 mmHg 88%
    06:00 +12°C° 0 mm 2 m/s 763 mmHg 84%
    07:00 +14°C° 0 mm 2 m/s 763 mmHg 80%
    08:00 +16°C° 0 mm 2 m/s 763 mmHg 72%
    09:00 +17°C° 0.3 mm 3 m/s 763 mmHg 70%
    10:00 +18°C° 0.3 mm 3 m/s 762 mmHg 68%
    11:00 +19°C° 0.3 mm 3 m/s 762 mmHg 66%
    12:00 +19°C° 0.4 mm 3 m/s 762 mmHg 66%
    13:00 +19°C° 0.4 mm 4 m/s 762 mmHg 65%
    14:00 +19°C° 0 mm 4 m/s 762 mmHg 63%
    15:00 +19°C° 0.1 mm 4 m/s 762 mmHg 64%
    16:00 +18°C° 0.1 mm 4 m/s 762 mmHg 65%
    17:00 +18°C° 0.1 mm 4 m/s 762 mmHg 67%
    18:00 +16°C° 0 mm 3 m/s 762 mmHg 74%
    19:00 +14°C° 0 mm 3 m/s 762 mmHg 81%
    20:00 +13°C° 0 mm 2 m/s 762 mmHg 88%
    21:00 +12°C° 0 mm 2 m/s 762 mmHg 89%
    22:00 +12°C° 0 mm 2 m/s 763 mmHg 90%
    23:00 +11°C° 0 mm 1 m/s 763 mmHg 91%

    Amanhã, 27 Maio, Quarta-feira

    Tempo Temperatura Precipitação Vento Pressão Humidade
    00:00 +11°C° 0 mm 1 m/s 763 mmHg 91%
    01:00 +11°C° 0 mm 1 m/s 762 mmHg 92%
    02:00 +11°C° 0 mm 1 m/s 762 mmHg 92%
    03:00 +10°C° 0 mm 1 m/s 762 mmHg 92%
    04:00 +10°C° 0 mm 1 m/s 762 mmHg 91%
    05:00 +9°C° 0 mm 2 m/s 762 mmHg 91%
    06:00 +12°C° 0 mm 2 m/s 763 mmHg 84%
    07:00 +14°C° 0 mm 2 m/s 763 mmHg 77%
    08:00 +16°C° 0 mm 3 m/s 763 mmHg 70%
    09:00 +17°C° 0.1 mm 3 m/s 763 mmHg 68%
    10:00 +18°C° 0.1 mm 4 m/s 763 mmHg 65%
    11:00 +19°C° 0.1 mm 5 m/s 762 mmHg 62%
    12:00 +19°C° 0.4 mm 5 m/s 762 mmHg 64%
    13:00 +20°C° 0.4 mm 5 m/s 762 mmHg 65%
    14:00 +20°C° 0.4 mm 5 m/s 762 mmHg 67%
    15:00 +19°C° 0.5 mm 4 m/s 761 mmHg 70%
    16:00 +18°C° 0.5 mm 4 m/s 761 mmHg 74%
    17:00 +18°C° 0.5 mm 4 m/s 761 mmHg 78%
    18:00 +16°C° 0.1 mm 3 m/s 761 mmHg 83%
    19:00 +15°C° 0.1 mm 2 m/s 761 mmHg 87%
    20:00 +13°C° 0.1 mm 1 m/s 762 mmHg 92%
    21:00 +13°C° 0 mm 1 m/s 761 mmHg 92%
    22:00 +12°C° 0 mm 1 m/s 761 mmHg 93%
    23:00 +12°C° 0 mm 1 m/s 761 mmHg 93%

    Depois de amanhã, 28 Maio, Quinta-feira

    Tempo Temperatura Precipitação Vento Pressão Humidade
    00:00 +12°C° 0 mm 1 m/s 761 mmHg 93%
    01:00 +12°C° 0 mm 2 m/s 761 mmHg 94%
    02:00 +12°C° 0 mm 2 m/s 761 mmHg 94%
    03:00 +10°C° 0.1 mm 2 m/s 761 mmHg 94%
    04:00 +10°C° 0.1 mm 2 m/s 761 mmHg 94%
    05:00 +10°C° 0.1 mm 2 m/s 761 mmHg 94%
    06:00 +13°C° 0 mm 2 m/s 761 mmHg 89%
    07:00 +13°C° 0 mm 3 m/s 761 mmHg 85%
    08:00 +16°C° 0 mm 3 m/s 761 mmHg 81%
    09:00 +17°C° 0.5 mm 3 m/s 761 mmHg 78%
    10:00 +18°C° 0.5 mm 3 m/s 761 mmHg 74%
    11:00 +19°C° 0.5 mm 3 m/s 760 mmHg 71%
    12:00 +19°C° 0.8 mm 3 m/s 760 mmHg 70%
    13:00 +20°C° 0.8 mm 2 m/s 760 mmHg 70%
    14:00 +20°C° 0.8 mm 2 m/s 759 mmHg 69%
    15:00 +20°C° 0.9 mm 2 m/s 759 mmHg 71%
    16:00 +19°C° 0.9 mm 2 m/s 759 mmHg 72%
    17:00 +19°C° 0.9 mm 2 m/s 758 mmHg 74%
    18:00 +19°C° 0.4 mm 1 m/s 758 mmHg 77%
    19:00 +16°C° 0.4 mm 1 m/s 759 mmHg 81%
    20:00 +13°C° 0.4 mm 0 m/s 759 mmHg 84%
    21:00 +14°C° 0 mm 1 m/s 759 mmHg 85%
    22:00 +14°C° 0 mm 1 m/s 759 mmHg 85%
    23:00 +13°C° 0 mm 1 m/s 759 mmHg 85%

    29 Maio, Sexta-feira

    Tempo Temperatura Precipitação Vento Pressão Humidade
    00:00 +13°C° 0 mm 1 m/s 759 mmHg 86%
    01:00 +13°C° 0 mm 1 m/s 759 mmHg 86%
    02:00 +12°C° 0 mm 2 m/s 759 mmHg 87%
    03:00 +12°C° 0 mm 2 m/s 759 mmHg 87%
    04:00 +12°C° 0 mm 2 m/s 759 mmHg 88%
    05:00 +12°C° 0 mm 2 m/s 759 mmHg 88%
    06:00 +14°C° 0 mm 2 m/s 759 mmHg 85%
    07:00 +15°C° 0 mm 2 m/s 759 mmHg 83%
    08:00 +17°C° 0 mm 2 m/s 759 mmHg 80%
    09:00 +18°C° 0.8 mm 2 m/s 759 mmHg 76%
    10:00 +19°C° 0.8 mm 2 m/s 759 mmHg 72%
    11:00 +21°C° 0.8 mm 1 m/s 759 mmHg 69%
    12:00 +21°C° 1.1 mm 1 m/s 759 mmHg 68%
    13:00 +22°C° 1.1 mm 1 m/s 758 mmHg 67%
    14:00 +21°C° 1.1 mm 2 m/s 758 mmHg 66%
    15:00 +20°C° 1.1 mm 2 m/s 758 mmHg 69%
    16:00 +20°C° 1.1 mm 2 m/s 758 mmHg 73%
    17:00 +20°C° 1.1 mm 2 m/s 758 mmHg 76%
    18:00 +19°C° 0.1 mm 1 m/s 758 mmHg 78%
    19:00 +18°C° 0.1 mm 1 m/s 758 mmHg 80%
    20:00 +16°C° 0.1 mm 1 m/s 759 mmHg 83%
    21:00 +15°C° 0 mm 1 m/s 759 mmHg 84%
    22:00 +15°C° 0 mm 1 m/s 759 mmHg 84%
    23:00 +14°C° 0 mm 1 m/s 759 mmHg 85%

    30 Maio, Sábado

    Tempo Temperatura Precipitação Vento Pressão Humidade
    00:00 +14°C° 0 mm 1 m/s 759 mmHg 86%
    01:00 +13°C° 0 mm 1 m/s 759 mmHg 86%
    02:00 +13°C° 0 mm 1 m/s 759 mmHg 86%
    03:00 +13°C° 0 mm 1 m/s 759 mmHg 87%
    04:00 +13°C° 0 mm 1 m/s 759 mmHg 88%
    05:00 +13°C° 0 mm 1 m/s 759 mmHg 88%
    06:00 +15°C° 0 mm 1 m/s 759 mmHg 84%
    07:00 +16°C° 0 mm 1 m/s 759 mmHg 81%
    08:00 +19°C° 0 mm 1 m/s 759 mmHg 77%
    09:00 +20°C° 0.5 mm 1 m/s 759 mmHg 74%
    10:00 +20°C° 0.5 mm 2 m/s 759 mmHg 72%
    11:00 +21°C° 0.5 mm 3 m/s 759 mmHg 69%
    12:00 +21°C° 0.8 mm 3 m/s 759 mmHg 70%
    13:00 +21°C° 0.8 mm 3 m/s 759 mmHg 70%
    14:00 +21°C° 0.8 mm 3 m/s 758 mmHg 71%
    15:00 +20°C° 1.1 mm 3 m/s 758 mmHg 75%
    16:00 +20°C° 1.1 mm 3 m/s 758 mmHg 80%
    17:00 +19°C° 1.1 mm 3 m/s 758 mmHg 85%
    18:00 +17°C° 1.1 mm 2 m/s 758 mmHg 87%
    19:00 +16°C° 1.1 mm 2 m/s 758 mmHg 90%
    20:00 +15°C° 1.1 mm 1 m/s 758 mmHg 93%
    21:00 +15°C° 0.1 mm 1 m/s 758 mmHg 92%
    22:00 +15°C° 0.1 mm 1 m/s 759 mmHg 91%
    23:00 +14°C° 0.1 mm 0 m/s 759 mmHg 90%

    31 Maio, Domingo

    Tempo Temperatura Precipitação Vento Pressão Humidade
    00:00 +14°C° 0.1 mm 0 m/s 758 mmHg 90%
    01:00 +15°C° 0.1 mm 1 m/s 758 mmHg 90%
    02:00 +15°C° 0.1 mm 1 m/s 758 mmHg 90%
    03:00 +14°C° 0 mm 1 m/s 758 mmHg 90%
    04:00 +14°C° 0 mm 1 m/s 758 mmHg 91%
    05:00 +14°C° 0 mm 1 m/s 758 mmHg 92%
    06:00 +15°C° 0 mm 1 m/s 758 mmHg 90%
    07:00 +16°C° 0 mm 1 m/s 758 mmHg 88%
    08:00 +18°C° 0 mm 1 m/s 759 mmHg 86%
    09:00 +19°C° 0.5 mm 1 m/s 759 mmHg 82%
    10:00 +20°C° 0.5 mm 1 m/s 759 mmHg 78%
    11:00 +22°C° 0.5 mm 1 m/s 759 mmHg 74%
    12:00 +22°C° 1.2 mm 1 m/s 758 mmHg 74%
    13:00 +22°C° 1.2 mm 1 m/s 758 mmHg 74%
    14:00 +22°C° 1.2 mm 1 m/s 758 mmHg 74%
    15:00 +22°C° 1.7 mm 1 m/s 758 mmHg 77%
    16:00 +21°C° 1.7 mm 1 m/s 758 mmHg 80%
    17:00 +20°C° 1.7 mm 2 m/s 758 mmHg 82%
    18:00 +20°C° 0.5 mm 1 m/s 758 mmHg 85%
    19:00 +19°C° 0.5 mm 1 m/s 758 mmHg 88%
    20:00 +18°C° 0.5 mm 1 m/s 758 mmHg 91%
    21:00 +16°C° 0.1 mm 2 m/s 758 mmHg 91%
    22:00 +16°C° 0.1 mm 2 m/s 758 mmHg 92%
    23:00 +15°C° 0.1 mm 2 m/s 758 mmHg 93%
    Mostrar mais